User: anonymous   Login
Location: Pulvis Stellarum Observatory
(41.6962°N, 71.4263°W)
Time: 02:49:31
(UTC-04:00)
Language:

Cosmos 1758 - Orbit

View from above orbital plane
View from above orbital plane
View from above satellite
View from above satellite

Ground track
Ground track

The orbit data is extracted from the following two-line orbital elements,

1 16791U 86046A   17205.51455564 +.00000135 +00000-0 +76251-5 0  9993
2 16791 082.4710 355.7037 0015681 325.8666 034.1550 15.04449498691298
Epoch (UTC): 24 July 2017 12:20:57
Eccentricity: 0.0015681
inclination: 82.4710°
perigee height: 542 km
apogee height: 564 km
right ascension of ascending node: 355.7037°
argument of perigee: 325.8666°
revolutions per day: 15.04449498
mean anomaly at epoch: 34.1550°
orbit number at epoch: 69129

The dashed part of the orbit path shows where the satellite is in the earth's shadow,  

DLR